Flag for Finland Weather past 2 weeks in Turku, Finland

Now
46 °F

Scattered clouds.


Feels Like: 42 °F
Forecast: 44 / 49 °F
Wind: 9 mph from Southeast

Location: Turku Airport

Current Time: May 5, 2015 at 9:16:24 AM

Latest Report: May 5, 2015 at 8:50 AM


Visibility: N/A

Pressure: 29.92 "Hg

Humidity: 53%

Dew point: 30 °F

Location of TurkuLocation

Historic Weather in Turku — Graph

°F

Turku temperature yesterday

Maximum temperature yesterday: 52 °F (at 12:20 PM)
Minimum temperature yesterday: 27 °F (at 1:50 AM)
Average temperature yesterday: 42 °F

Past Weeks' High & Low Weather Summary

 TemperatureHumidityPressure
High57 °F (May 1, 1:50 PM)100% (Apr 22, 5:50 AM)30.12 "Hg (Apr 22, 5:50 AM)
Low27 °F (Apr 24, 6:20 AM)19% (May 4, 7:20 PM)29.33 "Hg (Apr 23, 6:50 AM)
Average43 °F66%29.77 "Hg
* Reported Apr 20 8:20 AM — May 5 8:20 AM, Turku, Weather by CustomWeather, © 2015

Note: Actual official high and low records may vary slightly from our data, if they occured in-between our weather recording intervals... More about our weather records

Advertising

Turku weather history for previous 24 hours

 ConditionsComfort  
Time TempWeatherWind HumidityBarometerVisibility
8:20 AM
Tue, May 5
46 °FScattered clouds.10 mph53%29.92 "HgN/A
7:50 AM46 °FScattered clouds.8 mph53%29.92 "HgN/A
7:20 AM45 °FLight rain. Scattered clouds.8 mph53%29.92 "HgN/A
6:20 AM45 °FScattered clouds.8 mph53%29.92 "HgN/A
5:50 AM45 °FPassing clouds.8 mph53%29.92 "HgN/A
5:20 AM45 °FPassing clouds.9 mph53%29.92 "HgN/A
4:50 AM45 °FPassing clouds.10 mph53%29.92 "HgN/A
4:20 AM45 °FPassing clouds.9 mph53%29.92 "HgN/A
3:50 AM45 °FPassing clouds.10 mph49%29.92 "HgN/A
3:20 AM45 °FPassing clouds.12 mph49%29.92 "HgN/A
2:50 AM45 °FPassing clouds.10 mph46%29.92 "HgN/A
2:20 AM45 °FPassing clouds.10 mph46%29.92 "HgN/A
1:50 AM45 °FPassing clouds.9 mph42%29.95 "HgN/A
1:20 AM45 °FPassing clouds.10 mph39%29.95 "HgN/A
12:50 AM45 °FPassing clouds.9 mph39%29.95 "HgN/A
11:50 PM
Mon, May 4
46 °FClear.9 mph34%29.95 "Hg10 mi
11:20 PM46 °FClear.9 mph32%29.95 "Hg10 mi
10:50 PM46 °FClear.8 mph32%29.95 "Hg10 mi
10:20 PM48 °FSunny.8 mph29%29.95 "Hg10 mi
9:50 PM48 °FSunny.8 mph29%29.95 "Hg10 mi
9:20 PM48 °FSunny.8 mph29%29.95 "Hg10 mi
8:50 PM48 °FSunny.6 mph32%29.95 "Hg10 mi
8:20 PM50 °FPassing clouds.7 mph25%29.95 "HgN/A
7:50 PM50 °FPassing clouds.7 mph24%29.95 "HgN/A
7:20 PM50 °FPassing clouds.9 mph19%29.95 "HgN/A
6:50 PM50 °FPassing clouds.10 mph24%29.95 "HgN/A
6:20 PM52 °FPassing clouds.8 mph20%29.95 "HgN/A
5:50 PM52 °FSunny.13 mph22%29.95 "Hg10 mi
5:20 PM52 °FPassing clouds.10 mph26%29.98 "HgN/A
4:50 PM52 °FPassing clouds.10 mph28%29.98 "HgN/A
4:20 PM52 °FPassing clouds.7 mph28%29.98 "HgN/A
3:50 PM52 °FPassing clouds.8 mph35%29.98 "HgN/A
3:20 PM52 °FPassing clouds.8 mph35%29.98 "HgN/A
2:50 PM50 °FPassing clouds.9 mph43%29.98 "HgN/A
2:20 PM50 °FPassing clouds.7 mph50%29.98 "HgN/A
1:50 PM50 °FPartly sunny.8 mph54%29.98 "HgN/A
1:20 PM48 °FPassing clouds.8 mph54%29.98 "HgN/A
12:50 PM52 °FPassing clouds.8 mph50%29.98 "HgN/A
12:20 PM52 °FScattered clouds.8 mph50%30.01 "HgN/A
11:50 AM50 °FPassing clouds.6 mph40%30.01 "HgN/A
11:20 AM48 °FPassing clouds.7 mph37%30.01 "HgN/A
10:50 AM48 °FPassing clouds.7 mph46%30.01 "HgN/A
10:20 AM48 °FPassing clouds.6 mph46%30.01 "HgN/A
9:50 AM48 °FPassing clouds.3 mph54%30.01 "HgN/A
9:20 AM46 °FPassing clouds.5 mph66%30.01 "HgN/A
Weather by CustomWeather, © 2015

See weather overviewHow to use our weather pages